This demonstration page uses our WeatherBlox Daily Observations layout. Learn more.

Left ArrowRight Arrow

38.88101, -77.10428

Hourly Observations for February 18, 2021

Temp ( °F °C ) Dew Point ( °F °C ) Humidity (%) Winds ( mph kmh ) Pressure ( in mb ) Visibility ( mi km ) Precip ( " mm )
12:52 am 00:52 Cloudy 30 -1.1 15 -9.4 54 54 NE 9 15 30.43 1031 10 16 0.00 0.00
1:52 am 01:52 Cloudy 30 -1.1 14 -10 51 51 NE 12 19 30.41 1030 10 16 0.00 0.00
2:52 am 02:52 Cloudy 30 -1.1 16 -8.9 56 56 NE 8 13 30.42 1030 10 16 0.00 0.00
3:52 am 03:52 Cloudy 30 -1.1 15 -9.4 54 54 E 9 15 30.40 1030 10 16 0.00 0.00
4:25 am 04:25 Cloudy with Light Snow 30 -1.1 16 -8.9 56 56 NE 7 11 30.39 1029 8 13 0.00 0.00
4:39 am 04:39 Cloudy with Light Snow 29 -1.7 19 -7.2 66 66 E 10 17 30.38 1029 2 3 0.00 0.00
4:45 am 04:45 Cloudy with Light Snow 28 -2.2 21 -6.1 75 75 E 9 15 30.42 1030 2 2 0.00 0.00
4:52 am 04:52 Cloudy with Light Snow 28 -2.2 22 -5.6 78 78 ENE 7 11 30.39 1029 2 2 0.01 0.25
5:00 am 05:00 Cloudy with Light Snow 27 -2.8 22 -5.6 81 81 ENE 6 9 30.41 1030 2 3 0.00 0.00
5:12 am 05:12 Cloudy with Light Snow 27 -2.8 22 -5.6 81 81 ENE 8 13 30.41 1030 3 5 0.00 0.00
5:21 am 05:21 Cloudy with Light Snow 28 -2.2 22 -5.6 78 78 ENE 10 17 30.37 1029 2 3 0.00 0.00
5:36 am 05:36 Cloudy with Mist and Fog 27 -2.8 23 -5 85 85 E 8 13 30.37 1029 3 5 0.01 0.25
5:46 am 05:46 Cloudy with Mist and Fog 27 -3 23 -5 86 86 ENE 9 15 30.39 1029 4 6 0.01 0.25
5:52 am 05:52 Cloudy 28 -2.2 23 -5 81 81 ENE 7 11 30.39 1029 5 8 0.02 0.51
6:09 am 06:09 Cloudy 27 -2.8 23 -5 85 85 ENE 6 9 30.41 1030 5 8 0.02 0.51
6:52 am 06:52 Cloudy 28 -2.2 24 -4.4 85 85 ENE 8 13 30.38 1029 4 6 0.06 1.52
7:12 am 07:12 Cloudy 28 -2.2 24 -4.4 85 85 ENE 9 15 30.35 1028 2 3 0.03 0.76
7:26 am 07:26 Cloudy 28 -2.2 25 -3.9 88 88 NE 8 13 30.37 1029 3 4 0.03 0.76
7:38 am 07:38 Cloudy 28 -2.2 25 -3.9 88 88 NE 8 13 30.36 1028 3 4 0.04 1.02
7:52 am 07:52 Cloudy 28 -2.2 25 -3.9 88 88 NE 7 11 30.37 1029 3 5 0.04 1.02
7:56 am 07:56 Cloudy 28 -2.2 25 -3.9 88 88 NE 8 13 30.36 1028 3 4 0.00 0.00
8:09 am 08:09 Cloudy 29 -1.7 25 -3.9 85 85 NE 9 15 30.36 1028 3 4 0.00 0.00
8:26 am 08:26 Cloudy 29 -1.7 26 -3.3 89 89 NNE 10 17 30.38 1029 3 4 0.01 0.25
8:45 am 08:45 Cloudy 29 -1.7 26 -3.3 89 89 N 7 11 30.41 1030 2 2 0.02 0.51
8:52 am 08:52 Cloudy 29 -1.7 26 -3.3 89 89 N 12 19 30.37 1028 1 2 0.02 0.51
8:56 am 08:56 Cloudy 29 -1.7 26 -3.3 89 89 NNE 9 15 30.39 1029 1 1 0.02 0.51
8:58 am 08:58 Cloudy 29 -1.7 26 -3.3 89 89 N 8 13 30.40 1030 1 1 0.02 0.51
9:03 am 09:03 Cloudy 29 -1.7 26 -3.3 89 89 NE 13 20 30.36 1028 1 1 0.05 1.27
9:10 am 09:10 Cloudy 29 -1.7 26 -3.3 89 89 NE 12 19 30.36 1028 1 1 0.06 1.52
9:19 am 09:19 Cloudy 29 -1.7 26 -3.3 89 89 NNE 9 15 30.37 1029 1 2 0.08 2.03
9:43 am 09:43 Cloudy 29 -1.7 26 -3.3 89 89 N 15 24 30.35 1028 2 3 0.11 2.79
9:52 am 09:52 Cloudy 29 -1.7 25 -3.9 85 85 NNE 9 15 30.38 1029 2 3 0.13 3.30
10:10 am 10:10 Cloudy 29 -1.7 26 -3.3 89 89 NNE 7 11 30.38 1029 1 2 0.05 1.27
10:17 am 10:17 Cloudy 29 -1.7 26 -3.3 89 89 NNE 8 13 30.38 1029 1 2 0.07 1.78
10:24 am 10:24 Cloudy 29 -1.7 26 -3.3 89 89 NNE 9 15 30.37 1029 2 3 0.08 2.03
10:52 am 10:52 Cloudy 29 -1.7 26 -3.3 89 89 NE 10 17 30.34 1028 2 3 0.14 3.56
11:09 am 11:09 Cloudy 30 -1.1 27 -2.8 88 88 NE 9 15 30.31 1027 2 3 0.01 0.25
11:27 am 11:27 Cloudy with Light Wintry Mix 30 -1.1 27 -2.8 88 88 ENE 12 19 30.29 1026 3 5 0.03 0.76
11:52 am 11:52 Cloudy with Light Snow 31 -0.6 26 -3.3 82 82 E 10 17 30.24 1024 5 8 0.03 0.76
12:52 pm 12:52 Cloudy 32 0 27 -2.8 82 82 N 10 17 30.28 1026 10 16 0.00 0.00
1:52 pm 13:52 Cloudy 31 -0.6 27 -2.8 85 85 N 13 20 30.26 1025 10 16 0.00 0.00
2:52 pm 14:52 Cloudy 31 -0.6 26 -3.3 82 82 N 15 24 30.25 1025 10 16 0.00 0.00
3:52 pm 15:52 Cloudy 32 0 27 -2.8 82 82 N 12 19 30.24 1024 10 16 0.00 0.00
4:52 pm 16:52 Cloudy with Mist and Fog 31 -0.6 28 -2.2 89 89 NNE 12 19 30.23 1024 5 8 0.00 0.00
5:52 pm 17:52 Cloudy with Mist and Fog 31 -0.6 28 -2.2 89 89 NNE 13 20 30.23 1024 4 6 0.00 0.00
6:52 pm 18:52 Cloudy with Mist and Fog 30 -1.1 27 -2.8 88 88 N 14 22 30.24 1024 5 8 0.00 0.00
7:34 pm 19:34 Cloudy with Light Freezing Rain 30 -1.1 28 -2.2 92 92 N 12 19 30.25 1025 3 5 0.00 0.00
7:37 pm 19:37 Cloudy with Light Freezing Rain 30 -1.1 28 -2.2 92 92 N 12 19 30.26 1025 3 4 0.00 0.00
7:44 pm 19:44 Cloudy with Light Freezing Rain 30 -1.1 28 -2.2 92 92 N 10 17 30.26 1025 3 4 0.00 0.00
7:52 pm 19:52 Cloudy with Light Freezing Rain 30 -1.1 28 -2.2 92 92 N 14 22 30.26 1025 3 5 0.00 0.00
8:30 pm 20:30 Cloudy with Light Freezing Drizzle 30 -1.1 28 -2.2 92 92 NNE 10 17 30.25 1025 4 6 0.00 0.00
8:52 pm 20:52 Cloudy with Light Freezing Drizzle 30 -1.1 28 -2.2 92 92 NNE 10 17 30.24 1024 3 5 0.00 0.00
9:12 pm 21:12 Cloudy with Light Freezing Drizzle 30 -1.1 28 -2.2 92 92 N 7 11 30.25 1025 4 6 0.00 0.00
9:52 pm 21:52 Cloudy with Light Freezing Drizzle 30 -1.1 28 -2.2 92 92 N 10 17 30.24 1024 4 6 0.00 0.00
10:36 pm 22:36 Cloudy with Light Freezing Drizzle 31 -0.6 28 -2.2 89 89 N 8 13 30.22 1023 3 4 0.00 0.00
10:44 pm 22:44 Cloudy with Light Freezing Drizzle 30 -1.1 28 -2.2 92 92 N 10 17 30.22 1023 3 5 0.00 0.00
10:52 pm 22:52 Cloudy with Light Freezing Drizzle 30 -1.1 28 -2.2 92 92 N 12 19 30.23 1024 3 5 0.00 0.00
11:09 pm 23:09 Cloudy with Light Freezing Drizzle 31 -0.6 28 -2.2 89 89 NNE 9 15 30.22 1023 3 4 0.00 0.00
11:52 pm 23:52 Cloudy with Light Freezing Drizzle 31 -0.6 29 -1.7 92 92 N 9 15 30.20 1023 4 6 0.01 0.25

Powered by AerisWeather